FENGYUN 1C DEB, 32364

Orbit data source: Space-Track

FENGYUN 1C DEB, 32364 is space debris in SSO originally from a launch on Mon, 10 May 1999 UTC launched from the Taiyaun Space Center, China (TSC). Fengyun 1C debris stems from the Chinese weather satellite Fengyun-1C, which was intentionally destroyed by a Chinese anti-satellite missile in 2007. This event dramatically increased the amount of space debris, with thousands of trackable fragments posing hazards to satellites and human spaceflight. The Fengyun 1C debris cloud has become a focal point in discussions about space sustainability and the need for international regulations to prevent the creation of new debris.

Loading next visibility...
Identifier
32364, 1999-025CZH
Orbit
SSO
Country
Flag of CNCN / PRC
Related business
Manufacturer
Unknown
Mission
Spacecraft
Bus & Motor
Unknown
Mass
Unknown
Launch date (UTC)
1999-05-10 (27 years ago)
Launch vehicle
Unknown
Launch site
Taiyaun Space Center, China (TSC)
Object type
Payload
Rocket body
Debris
Shape & HBR
Unknown shape, 1.1 m
Radar Cross Section
Small (<0.1 m²)

Expand to show TLE details & history
Last TLE update: 3 weeks ago

TLE from 3 weeks ago
0 FENGYUN 1C DEB
1 32364U 99025CZH 26087.35787122  .00003722  00000-0  17845-2 0  9992
2 32364  98.3143 284.1490 0128533 238.2848 120.5746 14.15289267652028
Epoch: 2026-03-28T08:35Z
TLE epoch observation values (Epoch: 2026-03-28T08:35:20.073Z)
Latitude
0.00002°
Longitude
-30.46391°
Altitude
892.334 km
Speed
7.381 km/s
True Right ascension
18h 56m 35s
True Declination
0° 00' 00"
Sunlit
Object was in daylight at epoch
Visualization orbit readout
Latitude
Unknown
Longitude
Unknown
Altitude
Unknown
Speed
Unknown
Apparent Right ascension
Unknown
Apparent Declination
Unknown
Sunlit
N/A
Visualization observer readout
Local Sidereal Time
10:28:00
Azimuth
Unknown
Elevation
Unknown
Doppler factor
Unknown
Orbital elements
Apogee altitude
931.231 km
Perigee altitude
745.717 km
Semi-major axis
7,216.611 km
Eccentricity
0.01285
Inclination
98.3143°
RAAN
284.149°
Arg. of periapsis
238.2848°
True anomaly
121.83232°
Mean anomaly
120.5746°
Eccentric anomaly
121.20449°
Mean motion
3.54033 °/min
Orbital period
101.69 mins
BSTAR
0.0017845
Loading maneuver chart data...
Computing Atmospheric mass density...

Documentation

Showing up to 5 results
|